Location: Branche des Alpilles
(43.6087°N, 4.6976°E)
Time: 05:13:05
(UTC+00:00)

Cosmos 1943 - Pass Details

Date: 30 November 2020
Orbit: 832 x 851 km, 71.0° (Epoch: 24 January)

Event Time Altitude Azimuth Distance (km) Brightness Sun altitude
Rises 18:04:06 0° 200° (SSW) 3,376 6.8 -20.8°
Reaches altitude 10° 18:06:32 10° 200° (SSW) 2,448 6.0 -21.2°
Maximum altitude 18:12:09 82° 114° (ESE) 856 3.1 -22.3°
Enters shadow 18:14:40 35° 29° (NNE) 1,338 3.9 -22.7°
